Change the Weather History Date:

Saturday, April 26, 2014

  Actual Average Record
Temperature  
Mean Temperature 48 °F -  
Max Temperature 55 °F 62 °F 84 °F (2011)
Min Temperature 42 °F 37 °F 28 °F (2002)
Degree Days  
Heating Degree Days 17    
Moisture  
Dew Point 42 °F    
Average Humidity 84    
Maximum Humidity 93    
Minimum Humidity 56    
Precipitation  
Precipitation 1.05 in - - ()
Sea Level Pressure  
Sea Level Pressure 29.79 in    
Wind  
Wind Speed 4 mph (NNE)    
Max Wind Speed 8 mph    
Max Gust Speed -    
Visibility 7 miles    
Events Rain    
Averages and records for this station are not official NWS values.
T = Trace of Precipitation, MM = Missing Value Source: NWS Daily Summary

Daily Weather History Graph

Daily Weather History Graph

Search for Another Location

Airport or City:

Trip Planner

Search our weather history database for the weather conditions in past years. The results will help you decide how hot, cold, wet, or windy it might be!

Date:

Astronomy

Apr. 26, 2014 Rise Set
Actual Time 5:53 AM EDT 7:44 PM EDT
Civil Twilight 5:23 AM EDT 8:14 PM EDT
Nautical Twilight 4:46 AM EDT 8:51 PM EDT
Astronomical Twilight 4:07 AM EDT 9:31 PM EDT
Moon 4:19 AM EDT (4/26) 5:07 PM EDT (4/26)
Length of Visible Light 14h 51m
Length of Day
13h 51m
Waning Crescent, 8% of the Moon is Illuminated
Apr 26
Waning Crescent
Apr 29
New
May 6
First Quarter
May 14
Full
May 21
Last Quarter

Hourly Weather History & Observations

Time (EDT) Temp. Windchill Dew Point Humidity Pressure Visibility Wind Dir Wind Speed Gust Speed Precip Events Conditions
12:53 AM 48.0 °F - 33.1 °F 56% 29.81 in 10.0 mi South 8.1 mph - 0.00 in Rain Light Rain
1:53 AM 44.1 °F - 39.0 °F 82% 29.79 in 10.0 mi Calm Calm - 0.03 in Rain Light Rain
2:53 AM 44.1 °F 42.5 °F 41.0 °F 89% 29.77 in 10.0 mi East 3.5 mph - 0.03 in Rain Light Rain
3:53 AM 44.1 °F - 39.0 °F 82% 29.78 in 7.0 mi Calm Calm - 0.07 in Rain Light Rain
4:53 AM 42.1 °F - 39.0 °F 89% 29.78 in 6.0 mi Calm Calm - 0.14 in Rain Rain
5:53 AM 42.1 °F 40.2 °F 39.0 °F 89% 29.79 in 7.0 mi NNE 3.5 mph - 0.10 in Rain Light Rain
6:11 AM 42.1 °F 39.2 °F 39.0 °F 89% 29.78 in 6.0 mi North 4.6 mph - 0.02 in Rain Light Rain
6:19 AM 42.1 °F 39.2 °F 39.0 °F 89% 29.78 in 6.0 mi North 4.6 mph - 0.03 in Rain Light Rain
6:45 AM 42.1 °F 39.2 °F 39.0 °F 89% 29.78 in 5.0 mi NNE 4.6 mph - 0.06 in Rain Light Rain
6:53 AM 42.1 °F 39.2 °F 39.0 °F 89% 29.79 in 5.0 mi NE 4.6 mph - 0.06 in Rain Light Rain
6:55 AM 42.1 °F 40.2 °F 39.0 °F 89% 29.78 in 2.5 mi NNE 3.5 mph - 0.01 in Rain Light Rain
7:53 AM 42.1 °F - 37.9 °F 85% 29.80 in 2.5 mi Calm Calm - 0.09 in Rain Rain
8:53 AM 42.1 °F 38.4 °F 39.0 °F 89% 29.80 in 2.5 mi North 5.8 mph - 0.08 in Rain Light Rain
8:57 AM 42.1 °F 37.7 °F 39.0 °F 89% 29.79 in 3.0 mi North 6.9 mph - 0.00 in Rain Light Rain
9:05 AM 42.1 °F 39.2 °F 39.0 °F 89% 29.79 in 2.5 mi North 4.6 mph - 0.01 in Rain Light Rain
9:53 AM 43.0 °F 38.8 °F 39.9 °F 89% 29.80 in 2.5 mi North 6.9 mph - 0.04 in Rain Light Rain
10:53 AM 44.1 °F 40.1 °F 41.0 °F 89% 29.79 in 2.5 mi North 6.9 mph - 0.06 in Rain Light Rain
10:55 AM 44.1 °F 40.8 °F 41.0 °F 89% 29.78 in 2.5 mi North 5.8 mph - 0.00 in Rain Light Rain
11:53 AM 44.1 °F 42.5 °F 42.1 °F 93% 29.80 in 2.5 mi NE 3.5 mph - 0.04 in Rain Light Rain
12:00 PM 44.1 °F - 42.1 °F 93% 29.79 in 3.0 mi Calm Calm - 0.01 in Rain Light Rain
12:53 PM 46.0 °F 44.8 °F 43.0 °F 89% 29.79 in 10.0 mi NNE 3.5 mph - 0.02 in   Overcast
1:16 PM 46.9 °F - 44.1 °F 90% 29.77 in 10.0 mi NE 3.5 mph - N/A   Overcast
1:53 PM 48.9 °F - 43.0 °F 80% 29.79 in 10.0 mi Calm Calm - N/A   Overcast
2:06 PM 50.0 °F - 44.1 °F 80% 29.77 in 10.0 mi Variable 3.5 mph - N/A   Overcast
2:53 PM 50.0 °F - 44.1 °F 80% 29.77 in 10.0 mi East 3.5 mph - N/A   Mostly Cloudy
3:11 PM 51.1 °F - 44.1 °F 77% 29.75 in 10.0 mi NE 3.5 mph - N/A   Overcast
3:27 PM 53.1 °F - 44.1 °F 71% 29.75 in 10.0 mi Variable 3.5 mph - N/A   Mostly Cloudy
3:53 PM 54.0 °F - 43.0 °F 66% 29.76 in 10.0 mi Variable 3.5 mph - N/A   Clear
4:15 PM 54.0 °F - 44.1 °F 69% 29.74 in 10.0 mi East 5.8 mph - N/A   Mostly Cloudy
4:53 PM 54.0 °F - 43.0 °F 66% 29.75 in 10.0 mi Variable 3.5 mph - N/A   Mostly Cloudy
5:30 PM 54.0 °F - 42.1 °F 64% 29.74 in 10.0 mi East 4.6 mph - N/A   Mostly Cloudy
5:53 PM 54.0 °F - 42.1 °F 64% 29.76 in 10.0 mi ESE 4.6 mph - N/A   Mostly Cloudy
6:31 PM 53.1 °F - 42.1 °F 66% 29.75 in 10.0 mi Calm Calm - N/A   Mostly Cloudy
6:53 PM 53.1 °F - 43.0 °F 69% 29.78 in 10.0 mi South 3.5 mph - 0.00 in Rain Light Rain
7:21 PM 51.1 °F - 45.0 °F 80% 29.79 in 3.0 mi West 4.6 mph - 0.03 in Rain Rain
7:37 PM 48.9 °F - 46.9 °F 93% 29.78 in 6.0 mi ESE 3.5 mph - 0.05 in Rain Light Rain
7:44 PM 50.0 °F - 46.9 °F 89% 29.78 in 10.0 mi SE 3.5 mph - 0.05 in Rain Light Rain
7:53 PM 50.0 °F - 46.9 °F 89% 29.81 in 10.0 mi Calm Calm - 0.05 in Rain Light Rain
8:53 PM 48.9 °F - 46.0 °F 90% 29.82 in 10.0 mi SSE 3.5 mph - 0.02 in Rain Light Rain
9:53 PM 48.0 °F - 46.0 °F 93% 29.83 in 3.0 mi Variable 3.5 mph - 0.21 in Rain Light Rain
9:55 PM 48.0 °F - 46.0 °F 93% 29.83 in 10.0 mi North 8.1 mph - 0.00 in Rain Light Rain
10:03 PM 48.9 °F - 46.0 °F 90% 29.82 in 10.0 mi Variable 6.9 mph - 0.01 in Rain Light Rain
10:19 PM 48.9 °F - 46.0 °F 90% 29.83 in 10.0 mi Calm Calm - 0.01 in Rain Light Rain
10:43 PM 48.9 °F - 46.0 °F 90% 29.83 in 10.0 mi NW 4.6 mph - 0.01 in   Overcast
10:50 PM 48.2 °F - 46.4 °F 93% 29.83 in 10.0 mi WNW 4.6 mph - 0.01 in   Mostly Cloudy
10:53 PM 48.0 °F - 46.0 °F 93% 29.84 in 10.0 mi WNW 4.6 mph - 0.01 in   Mostly Cloudy
11:53 PM 46.9 °F - 42.1 °F 83% 29.85 in 10.0 mi North 3.5 mph - N/A   Mostly Cloudy